Location: Gergueil
(47.2406°N, 4.8183°E)
Time: 05:15:22
(UTC+00:00)

Daily predictions for brighter satellites

Satellite Brightness Start Highest point End
(mag) Time Altitude Azimuth Time Altitude Azimuth Time Altitude Azimuth
SL-16 R/B 4.1 00:12:20 29° NE 00:12:20 29° NE 00:16:19 10° N
Cosmos 1943 Rocket 4.3 00:17:16 21° N 00:17:16 21° N 00:19:24 10° NNE
Cosmos 2297 Rocket 4.2 00:25:20 10° N 00:28:49 24° NNE 00:28:49 24° NNE
Resurs 1-4 Rocket 4.4 00:33:03 10° NNE 00:34:54 19° NE 00:34:54 19° NE
Cosmos 2369 Rocket 4.2 00:41:06 23° N 00:41:06 23° N 00:43:34 10° NNE
CZ-4C R/B 4.2 00:47:10 24° NNW 00:47:10 24° NNW 00:52:18 10° NNE
Cosmos 2227 Rocket 3.6 01:21:59 10° NNW 01:25:13 32° N 01:25:13 32° N
Lacrosse 5 4.3 01:32:48 16° E 01:32:48 16° E 01:34:19 10° ENE
USA 234 3.8 01:27:20 10° E 01:33:39 55° NNE 01:37:44 23° NW
ADEOS II 3.3 01:34:43 10° NNE 01:38:28 37° ENE 01:38:28 37° ENE
Cosmos 2181 Rocket 4.4 01:47:56 58° N 01:47:56 58° N 01:52:49 10° N
IDEFIX/ARIANE 42P 4.4 01:48:21 10° NE 01:52:32 23° E 01:53:40 22° ESE
SL-16 R/B 3.8 01:57:25 28° NW 01:57:25 28° NW 02:00:21 10° NNW
ARIANE 5 R/B 3.8 01:57:07 10° NNE 02:01:45 34° E 02:01:51 34° E
IRS-1D 4.2 01:57:34 10° NNE 02:01:47 55° NNE 02:01:47 55° NNE
CZ-2D R/B 3.3 01:58:45 10° N 02:02:04 36° NNW 02:02:04 36° NNW
ATLAS 5 CENTAUR R/B 3.3 02:07:56 29° N 02:07:56 29° N 02:10:43 10° NNE
Cosmos 2297 Rocket 4.1 02:08:57 10° NNW 02:10:32 19° NW 02:10:32 19° NW
Resurs 1-4 Rocket 3.3 02:12:44 10° N 02:15:58 31° NNW 02:15:58 31° NNW
Cosmos 2082 3.9 02:13:11 10° NNW 02:18:53 70° ENE 02:20:23 49° SE
X-37B 4.0 02:29:09 10° E 02:29:09 10° E 02:29:09 10° E
SJ 16-02 4.1 02:25:51 10° N 02:28:53 18° NE 02:31:54 10° E
Meteor 1-25 Rocket 4.4 02:25:16 10° N 02:31:07 72° ENE 02:33:00 44° SSE
Cosmos 1697 Rocket 2.8 02:32:33 64° SE 02:32:59 67° ESE 02:38:34 10° NNE
ASTEX 1 4.3 02:29:59 10° NNE 02:34:50 47° E 02:36:22 35° SE
IRS-P3 4.0 02:30:07 10° NNE 02:35:28 89° N 02:35:28 89° N
H-2A R/B 4.0 02:33:20 10° SE 02:37:09 30° ENE 02:41:02 10° N
Cosmos 1980 Rocket 3.2 02:35:19 31° SSE 02:37:12 40° ESE 02:42:28 10° NE
USA 267 3.1 02:34:18 10° NE 02:40:54 87° NNW 02:42:17 60° WSW
Cosmos 2263 Rocket 3.8 02:39:46 10° NNW 02:44:57 35° NE 02:50:06 10° ESE
ERS-1 4.4 02:40:02 10° NNE 02:45:11 82° ESE 02:45:42 72° S
SL-8 R/B 3.7 02:46:01 77° ENE 02:46:01 77° ENE 02:50:32 10° E
Cosmos 1818 4.2 02:46:12 42° NW 02:46:16 42° NW 02:51:27 10° NNE
USA 307 3.3 02:52:25 57° ESE 02:52:25 57° ESE 02:56:08 10° ENE
NOSS 2-2 (D) 4.5 02:47:44 10° NW 02:53:18 86° NE 03:01:05 10° SE
Cosmos 1821 Rocket 3.9 02:48:13 10° NNW 02:54:31 72° W 02:56:29 45° SSW
USA 308 3.2 02:55:23 61° ESE 02:55:23 61° ESE 02:59:15 10° ENE
Cosmos 1470 Rocket 3.6 02:51:24 10° N 02:55:25 72° NNW 02:55:25 72° NNW
Spot 4 Rocket 4.1 02:52:55 10° NNE 02:58:06 73° ESE 02:59:44 44° S
SL-24 R/B 4.2 02:59:50 73° WSW 02:59:51 73° WSW 03:05:02 10° NNW
Landsat 5 4.3 03:00:38 10° SSE 03:05:03 57° ENE 03:09:29 10° N
Celestis-02/Orion 38 4.5 03:01:19 10° SSE 03:06:33 68° WSW 03:11:44 10° NNW
Cosmos 1934 Rocket 3.8 03:03:29 10° N 03:09:34 90° N 03:15:39 10° S
Cosmos 1777 Rocket 3.9 03:05:01 10° NNW 03:10:11 62° WSW 03:12:06 37° S
Cosmos 1782 2.7 03:10:11 82° S 03:10:22 89° E 03:14:26 10° N
Cosmos 2227 Rocket 4.3 03:06:31 10° NW 03:06:57 12° NW 03:06:57 12° NW
Cosmos 1238 Rocket 4.0 03:05:09 10° N 03:11:51 85° E 03:18:04 10° S
Cosmos 1656 4.3 03:12:05 36° WNW 03:12:42 38° NW 03:17:50 10° NNE
Lacrosse 5 1.8 03:12:00 58° WSW 03:13:01 86° NW 03:18:07 10° NE
ADEOS Rocket 4.2 03:09:14 10° SE 03:15:42 47° ENE 03:21:35 10° N
Cosmos 1515 Rocket 3.4 03:15:07 60° SSW 03:15:53 78° W 03:20:21 10° N
CZ-4B R/B 4.4 03:13:47 10° ESE 03:15:56 17° ENE 03:18:08 10° NNE
USA 234 3.2 03:10:08 10° SE 03:16:36 65° SW 03:23:07 10° WNW
CZ-2C R/B 2.7 03:14:01 10° NNE 03:17:47 76° ESE 03:18:32 55° S
Meteor 1-20 Rocket 4.3 03:12:55 10° NNW 03:18:09 47° W 03:18:42 45° WSW
ADEOS II 3.0 03:14:46 10° N 03:19:16 29° WNW 03:19:23 29° WNW
Nadezhda 3 Rocket 4.1 03:18:39 40° SW 03:20:27 52° WNW 03:26:28 10° N
USA 276 2.5 03:21:38 60° NNE 03:21:38 60° NNE 03:24:33 10° ENE
Cosmos 972 Rocket 4.0 03:24:15 45° WSW 03:25:14 54° WNW 03:30:05 10° NNE
Cosmos 44 3.4 03:24:49 34° S 03:26:33 62° ESE 03:31:09 10° NE
CSL-04 DEB 4.5 03:22:22 10° SSE 03:26:40 90° WNW 03:31:03 10° NNW
Cosmos 1356 3.2 03:24:50 10° NNW 03:28:18 78° W 03:28:28 75° SW
Cosmos 1328 Rocket 4.3 03:28:49 35° WNW 03:28:49 35° WNW 03:32:46 10° N
MSX 3.7 03:22:50 10° NNE 03:28:39 83° WNW 03:32:39 21° SSW
Timation 1 Rocket 4.3 03:23:42 10° NW 03:29:38 64° WSW 03:35:33 10° SSE
Cosmos 921 Rocket 3.6 03:27:48 19° S 03:30:36 53° ESE 03:34:41 10° NNE
Cosmos 2278 3.6 03:28:11 33° SW 03:30:52 77° WNW 03:36:37 10° NNE
Cosmos 1605 Rocket 4.0 03:25:57 10° N 03:32:23 88° E 03:38:47 10° S
IDEFIX/ARIANE 42P 2.7 03:27:17 10° N 03:32:26 54° WNW 03:34:28 34° SW
Cosmos 1535 Rocket 4.5 03:26:53 10° NNW 03:33:11 66° W 03:39:30 10° S
Cosmos 1933 Rocket 3.6 03:28:57 10° NNW 03:33:12 51° W 03:34:17 40° SW
CZ-3B R/B 2.8 03:32:05 31° WNW 03:33:22 45° N 03:42:02 10° ENE
Cosmos 2228 Rocket 3.0 03:31:12 22° S 03:34:02 84° E 03:38:28 10° N
Cosmos 1151 Rocket 4.2 03:37:30 26° WNW 03:37:30 26° WNW 03:40:50 10° NNW
Cosmos 2369 4.1 03:36:40 32° WSW 03:38:54 48° NW 03:44:28 10° NNE
ARIANE 5 R/B 3.2 03:36:14 10° N 03:40:51 35° WNW 03:42:10 30° W
CZ-4C R/B 3.1 03:42:39 35° SSW 03:43:49 51° W 03:47:20 10° NNW
ALOS 4.2 03:43:22 10° NNE 03:47:30 30° E 03:51:36 10° SSE
IRIDIUM 106 4.3 03:43:06 10° N 03:48:22 87° E 03:53:36 10° S
Cosmos 1536 4.2 03:47:09 10° N 03:51:03 41° ENE 03:54:55 10° SSE
ATLAS 5 CENTAUR R/B 3.9 03:49:31 10° NW 03:52:12 15° NNW 03:55:06 10° NNE
Cosmos 1869 Rocket 3.4 03:47:52 10° NNW 03:52:14 80° W 03:56:33 10° S
Meteor 1-4 Rocket 2.7 03:52:51 10° S 03:56:17 67° E 03:59:46 10° NNE
USA 305 3.2 03:58:51 25° W 04:01:05 55° NNW 04:05:16 10° NE
X-37B 0.8 04:01:25 33° WSW 04:02:32 56° S 04:05:41 10° ESE
USA 306 3.3 04:02:46 23° W 04:05:10 53° NNW 04:09:21 10° NE
Cosmos 1763 Rocket 4.0 04:01:20 10° S 04:06:34 63° ESE 04:11:49 10° NNE
Cosmos 1727 Rocket 4.0 04:00:18 10° S 04:06:39 90° ESE 04:13:02 10° N
Cosmos 389 Rocket 3.6 04:06:11 24° W 04:06:48 25° WNW 04:09:49 10° NNW
Cosmos 2100 Rocket 4.5 04:00:35 10° N 04:06:58 68° E 04:13:19 10° SSE
Meteor 1-31 Rocket 4.4 04:03:36 10° NNE 04:07:10 35° E 04:10:42 10° SSE
SJ 16-02 1.3 04:03:32 10° NNW 04:07:52 59° WSW 04:12:11 10° S
PSLV R/B 3.5 04:05:36 10° N 04:09:46 61° WNW 04:13:53 10° SSW
Cosmos 2360 Rocket 4.1 04:06:27 10° SSE 04:11:18 30° ESE 04:16:09 10° NE
H-2A R/B 2.8 04:09:11 10° SSW 04:13:04 31° W 04:17:02 10° NNW
ERS-2 2.4 04:10:25 10° S 04:13:54 43° W 04:17:26 10° NNW
CZ-2C R/B 2.6 04:12:23 10° N 04:17:25 62° WNW 04:22:30 10° SSW
Cosmos 1697 Rocket 3.9 04:14:18 16° W 04:17:27 25° NW 04:22:04 10° N
NOSS 3-4 (A) 4.2 04:11:47 10° NW 04:18:40 68° NE 04:26:20 10° SE
NOSS 3-4 (C) 4.3 04:11:53 10° NW 04:18:47 67° NE 04:26:26 10° SE
Gbstr 26 Del rocket 4.4 04:11:19 10° WNW 04:19:23 79° SSW 04:26:29 10° SE
PAYLOAD A 4.1 04:16:24 10° N 04:20:56 48° WNW 04:25:26 10° SW
Cosmos 1980 Rocket 2.8 04:17:07 16° WSW 04:21:14 38° NW 04:26:31 10° NNE
USA 267 3.9 04:17:25 10° NE 04:23:33 45° NNW 04:29:37 10° W
FENGYUN 3A 4.0 04:19:42 10° NNE 04:25:06 70° ESE 04:30:28 10° S
Meteor 1-10 Rocket 4.4 04:20:40 10° SSW 04:26:19 57° WNW 04:32:08 10° N
Cosmos 2322 Rocket 2.5 04:20:47 10° SSW 04:26:24 70° ESE 04:32:06 10° NNE
SJ-6F 4.3 04:22:33 10° N 04:26:42 76° WNW 04:30:46 10° SSW
Cosmos 990 Rocket 4.0 04:22:25 10° NNW 04:27:32 60° WSW 04:32:38 10° S
SL-8 R/B 4.0 04:24:00 12° W 04:28:11 49° SSW 04:32:46 10° SE
NOSS 3-3 (A) 4.0 04:22:36 11° SW 04:28:15 71° NW 04:34:54 10° NE
NOSS 3-3 (C) 3.9 04:22:46 11° SW 04:28:22 71° NW 04:34:59 10° NE
CZ-4C R/B 4.3 04:22:28 10° NNW 04:28:39 35° NNE 04:35:49 10° E
Cosmos 1459 Rocket 4.0 04:22:36 10° N 04:28:45 88° E 04:34:48 10° S
Cosmos 2263 Rocket 2.5 04:23:39 10° NW 04:28:59 44° WSW 04:34:19 10° S
Cosmos 1812 3.5 04:27:37 10° SW 04:31:05 32° WNW 04:34:35 10° N
Cosmos 468 Rocket 4.0 04:25:54 10° SSW 04:31:12 75° WNW 04:36:30 10° NNE
USA 307 3.6 04:28:36 13° W 04:32:09 42° NNW 04:36:14 10° NE
SL-16 R/B 2.2 04:28:25 10° SSW 04:34:06 87° WNW 04:39:49 10° NNE
USA 308 3.7 04:31:34 12° W 04:35:16 41° NNW 04:39:20 10° NE
COSMO-SKYMED 1 3.2 04:31:28 10° SSE 04:35:44 62° ENE 04:40:02 10° N
Cosmos 1844 Rocket 3.6 04:30:28 10° NNW 04:36:00 53° ENE 04:41:31 10° SE
SL-4 R/B 3.5 04:34:22 10° SSW 04:38:41 39° SE 04:43:09 10° ENE
Cosmos 540 Rocket 4.0 04:34:44 10° S 04:39:49 63° ESE 04:44:57 10° NNE
ATLAS CENTAUR R/B 3.7 04:31:57 10° WNW 04:41:28 49° NNE 04:45:20 10° E
Cosmos 1666 3.2 04:38:39 10° NNW 04:42:11 36° W 04:45:40 10° SSW
ATLAS 2AS CENTAUR R/B 3.1 04:35:13 10° NW 04:42:49 77° NE 04:49:47 10° SE
ERBS 2.3 04:43:09 10° WSW 04:46:30 76° NW 04:49:52 10° NE
CZ-4B R/B 2.1 04:45:16 10° SSW 04:48:01 28° W 04:50:51 10° NW
Cosmos 1544 4.4 04:44:36 10° N 04:48:06 45° ENE 04:51:33 10° SSE
deb Chang Zheng 4 3.9 04:51:35 10° N 04:55:42 44° WNW 04:59:46 10° SW
Cosmos 1898 Rocket 4.0 04:51:09 10° NW 04:55:58 38° WSW 05:00:48 10° S
Cosmos 1908 Rocket 4.3 04:51:54 10° N 04:56:20 62° ENE 05:00:46 10° SSE
Lacrosse 5 3.0 04:51:57 10° W 04:56:32 33° NNW 05:01:07 10° NE
